QPF
0.00 0.00 0.00 0.00 0.00 0.00 0.00 0.00 0.00 0.00 0.00 0.00 0.00 0.00 0.00 0.00 0.00 0.00 0.00 0.00 0.00 0.00 0.00 0.00 0.00 0.00 0.00 0.00 0.00 0.00 0.00 0.00 0.00 0.00 0.00 0.00 0.00 0.00 0.00 0.00 0.00 0.00 0.00 0.00 0.00 0.00 0.00 0.00 0.00
0.00 0.00 0.00 0.00 0.00 0.00 0.00 0.00 0.00 0.00 0.00 0.00 0.00 0.00 0.00 0.00 0.00 0.00 0.00 0.00 0.00 0.00 0.00 0.00 0.00 0.00 0.00 0.00 0.00 0.00 0.00 0.00 0.00 0.00 0.00 0.00 0.00 0.00 0.00 0.00 0.00 0.00 0.00 0.00 0.00 0.00 0.00 0.00 0.00
0.00 0.00 0.00 0.00 0.00 0.00 0.00 0.00 0.00 0.00 0.00 0.00 0.00 0.00 0.00 0.00 0.00 0.00 0.00 0.00 0.00 0.00 0.00 0.00 0.00 0.00 0.00 0.00 0.00 0.00 0.00 0.00 0.00 0.00 0.00 0.00 0.00 0.00 0.00 0.00 0.00 0.00 0.00 0.00 0.00 0.00 0.00 0.00 0.00
0.00 0.00 0.00 0.00 0.00 0.00 0.00 0.00 0.00 0.00 0.00 0.00 0.00 0.00 0.00 0.00 0.00 0.00 0.00 0.00 0.00 0.00 0.00 0.00 0.00 0.00 0.00 0.00 0.00 0.00 0.00 0.00 0.00 0.00 0.00 0.00 0.00 0.00 0.00 0.00 0.00 0.00 0.00 0.00 0.00 0.00 0.00 0.00 0.00
0.00 0.00 0.00 0.00 0.00 0.00 0.00 0.00 0.00 0.00 0.00 0.00 0.00 0.00 0.00 0.00 0.00 0.00 0.00 0.00 0.00 0.00 0.00 0.00 0.00 0.00 0.00 0.00 0.00 0.00 0.00 0.00 0.00 0.00 0.00 0.00 0.00 0.00 0.00 0.00 0.00 0.00 0.00 0.00 0.00 0.00 0.00 0.00 0.00
0.00 0.00 0.00 0.00 0.00 0.00 0.00 0.00 0.00 0.00 0.00 0.00 0.00 0.00 0.02 0.02 0.00 0.00 0.00 0.00 0.00 0.00 0.00 0.00 0.00 0.00 0.00 0.00 0.00 0.00 0.00 0.00 0.00 0.00 0.00 0.00 0.00 0.00 0.00 0.00 0.00 0.00 0.00 0.00 0.00 0.00 0.00 0.00 0.00
0.00 0.00 0.00 0.00 0.00 0.00 0.00 0.00 0.00 0.00 0.00 0.00 0.00 0.00 0.04 0.03 0.00 0.00 0.00 0.00 0.00 0.00 0.00 0.00 0.00 0.00 0.00 0.00 0.00 0.00 0.00 0.00 0.00 0.00 0.00 0.00 0.00 0.00 0.00 0.00 0.00 0.00 0.00 0.00 0.00 0.00 0.00 0.00 0.00
0.00 0.00 0.00 0.00 0.00 0.00 0.00 0.00 0.00 0.00 0.00 0.00 0.00 0.00 0.01 0.00 0.00 0.00 0.00 0.00 0.00 0.00 0.00 0.00 0.00 0.00 0.00 0.00 0.00 0.00 0.00 0.00 0.00 0.00 0.00 0.00 0.00 0.00 0.00 0.00 0.00 0.00 0.00 0.00 0.00 0.00 0.00 0.00 0.00
0.00 0.00 0.00 0.00 0.00 0.00 0.00 0.00 0.00 0.00 0.00 0.00 0.00 0.00 0.00 0.00 0.00 0.00 0.00 0.00 0.00 0.00 0.00 0.00 0.00 0.00 0.00 0.00 0.00 0.00 0.00 0.00 0.00 0.00 0.00 0.00 0.00 0.00 0.00 0.00 0.00 0.00 0.00 0.00 0.00 0.00 0.00 0.00 0.00
0.00 0.00 0.00 0.00 0.00 0.00 0.00 0.00 0.00 0.00 0.00 0.00 0.00 0.00 0.01 0.02 0.00 0.00 0.00 0.00 0.00 0.00 0.00 0.00 0.00 0.00 0.00 0.00 0.00 0.00 0.00 0.00 0.00 0.00 0.00 0.00 0.00 0.00 0.00 0.00 0.00 0.00 0.00 0.00 0.00 0.00 0.00 0.00 0.00
0.00 0.00 0.00 0.00 0.00 0.00 0.00 0.00 0.00 0.00 0.00 0.00 0.00 0.00 0.00 0.01 0.03 0.03 0.03 0.01 0.01 0.02 0.01 0.00 0.00 0.00 0.00 0.00 0.00 0.00 0.00 0.00 0.00 0.00 0.00 0.00 0.00 0.00 0.00 0.00 0.00 0.00 0.00 0.00 0.00 0.00 0.00 0.00 0.00
0.00 0.00 0.00 0.00 0.00 0.00 0.00 0.00 0.00 0.00 0.00 0.00 0.00 0.00 0.00 0.00 0.02 0.06 0.25 0.13 0.08 0.10 0.03 0.00 0.00 0.00 0.00 0.00 0.00 0.00 0.00 0.00 0.00 0.00 0.00 0.00 0.00 0.00 0.00 0.00 0.00 0.00 0.00 0.00 0.00 0.00 0.00 0.00 0.00
0.00 0.00 0.00 0.00 0.00 0.00 0.00 0.00 0.00 0.00 0.00 0.00 0.00 0.00 0.00 0.00 0.00 0.04 0.20 0.19 0.18 0.10 0.03 0.00 0.00 0.00 0.00 0.00 0.00 0.00 0.00 0.00 0.00 0.00 0.00 0.00 0.00 0.00 0.00 0.00 0.00 0.00 0.00 0.00 0.00 0.00 0.00 0.00 0.00
0.00 0.00 0.00 0.00 0.00 0.00 0.00 0.00 0.00 0.00 0.00 0.00 0.00 0.00 0.00 0.00 0.00 0.02 0.02 0.11 0.09 0.02 0.00 0.00 0.00 0.00 0.00 0.00 0.00 0.00 0.00 0.00 0.00 0.00 0.00 0.00 0.00 0.00 0.00 0.00 0.00 0.00 0.00 0.00 0.00 0.00 0.00 0.00 0.00
0.00 0.00 0.00 0.00 0.00 0.00 0.00 0.00 0.00 0.00 0.00 0.00 0.00 0.00 0.00 0.00 0.00 0.00 0.01 0.01 0.02 0.01 0.00 0.00 0.00 0.00 0.00 0.00 0.00 0.00 0.00 0.00 0.00 0.00 0.00 0.00 0.00 0.00 0.00 0.00 0.00 0.00 0.00 0.00 0.00 0.00 0.00 0.00 0.00
0.00 0.00 0.00 0.00 0.00 0.00 0.00 0.00 0.00 0.00 0.00 0.00 0.00 0.00 0.00 0.00 0.00 0.01 0.02 0.01 0.01 0.00 0.00 0.00 0.00 0.00 0.00 0.00 0.00 0.00 0.00 0.00 0.00 0.00 0.00 0.00 0.00 0.00 0.00 0.00 0.00 0.00 0.00 0.00 0.00 0.00 0.00 0.00 0.00
0.00 0.00 0.00 0.00 0.00 0.00 0.00 0.00 0.00 0.00 0.00 0.00 0.00 0.00 0.00 0.00 0.00 0.00 0.00 0.01 0.01 0.01 0.01 0.01 0.00 0.00 0.00 0.00 0.00 0.00 0.00 0.00 0.00 0.00 0.00 0.00 0.00 0.00 0.00 0.00 0.00 0.00 0.00 0.01 0.01 0.00 0.00 0.00 0.00
0.00 0.00 0.00 0.00 0.00 0.00 0.00 0.00 0.00 0.00 0.00 0.00 0.00 0.00 0.00 0.00 0.00 0.00 0.00 0.01 0.02 0.02 0.00 0.00 0.00 0.00 0.00 0.00 0.00 0.00 0.00 0.00 0.00 0.00 0.00 0.00 0.00 0.00 0.00 0.00 0.00 0.00 0.00 0.00 0.02 0.02 0.00 0.00 0.00
0.00 0.00 0.00 0.00 0.00 0.00 0.00 0.00 0.00 0.00 0.00 0.00 0.00 0.00 0.00 0.00 0.00 0.00 0.00 0.01 0.02 0.01 0.00 0.00 0.00 0.00 0.00 0.00 0.00 0.00 0.00 0.00 0.00 0.00 0.00 0.00 0.00 0.00 0.00 0.00 0.00 0.00 0.00 0.01 0.01 0.01 0.00 0.00 0.00
0.00 0.00 0.00 0.00 0.00 0.00 0.00 0.00 0.00 0.00 0.00 0.00 0.00 0.00 0.00 0.00 0.00 0.01 0.01 0.01 0.01 0.01 0.03 0.01 0.00 0.00 0.01 0.00 0.02 0.01 0.00 0.01 0.00 0.00 0.00 0.00 0.00 0.00 0.00 0.00 0.02 0.00 0.00 0.00 0.00 0.00 0.01 0.00 0.01
0.00 0.00 0.00 0.00 0.00 0.00 0.00 0.00 0.00 0.00 0.00 0.00 0.00 0.00 0.00 0.00 0.00 0.00 0.01 0.01 0.01 0.01 0.01 0.01 0.03 0.06 0.04 0.01 0.08 0.02 0.02 0.00 0.01 0.01 0.01 0.03 0.01 0.00 0.00 0.00 0.02 0.01 0.06 0.03 0.04 0.07 0.05 0.04 0.03
0.00 0.00 0.00 0.00 0.00 0.00 0.00 0.00 0.00 0.00 0.00 0.00 0.00 0.00 0.00 0.00 0.00 0.00 0.00 0.00 0.00 0.00 0.01 0.04 0.07 0.12 0.10 0.06 0.04 0.08 0.17 0.12 0.12 0.12 0.05 0.06 0.04 0.00 0.02 0.05 0.10 0.20 0.25 0.16 0.14 0.25 0.20 0.17 0.08
0.00 0.00 0.00 0.00 0.00 0.00 0.00 0.00 0.00 0.00 0.00 0.00 0.00 0.00 0.00 0.00 0.00 0.00 0.00 0.00 0.00 0.00 0.00 0.00 0.01 0.02 0.04 0.06 0.08 0.08 0.09 0.06 0.14 0.18 0.19 0.12 0.11 0.19 0.16 0.20 0.44 0.51 0.38 0.32 0.30 0.40 0.20 0.13 0.07
0.00 0.00 0.00 0.00 0.00 0.00 0.00 0.00 0.00 0.00 0.00 0.00 0.00 0.00 0.02 0.03 0.00 0.00 0.00 0.00 0.00 0.00 0.00 0.00 0.00 0.00 0.00 0.01 0.03 0.04 0.05 0.06 0.09 0.11 0.11 0.10 0.15 0.16 0.23 0.33 0.57 0.35 0.25 0.19 0.30 0.23 0.10 0.04 0.02
0.00 0.00 0.00 0.00 0.00 0.00 0.00 0.00 0.00 0.00 0.00 0.00 0.00 0.02 0.04 0.04 0.02 0.01 0.00 0.00 0.00 0.00 0.00 0.00 0.00 0.00 0.00 0.00 0.00 0.00 0.01 0.03 0.04 0.05 0.07 0.05 0.04 0.05 0.08 0.14 0.23 0.16 0.09 0.02 0.02 0.01 0.01 0.01 0.01
0.00 0.00 0.00 0.00 0.00 0.00 0.00 0.00 0.00 0.00 0.00 0.00 0.02 0.05 0.07 0.07 0.05 0.02 0.01 0.00 0.00 0.00 0.00 0.00 0.00 0.00 0.00 0.00 0.00 0.00 0.00 0.00 0.00 0.00 0.00 0.00 0.01 0.02 0.01 0.03 0.06 0.05 0.02 0.00 0.00 0.00 0.00 0.01 0.00
0.00 0.00 0.00 0.00 0.00 0.00 0.00 0.00 0.00 0.00 0.01 0.01 0.03 0.05 0.09 0.08 0.04 0.02 0.01 0.00 0.00 0.00 0.00 0.00 0.00 0.00 0.00 0.00 0.00 0.00 0.00 0.00 0.00 0.00 0.00 0.00 0.00 0.00 0.00 0.00 0.00 0.00 0.00 0.00 0.00 0.00 0.00 0.03 0.03
0.00 0.00 0.00 0.00 0.00 0.00 0.00 0.00 0.00 0.00 0.00 0.00 0.02 0.02 0.03 0.02 0.01 0.01 0.00 0.00 0.00 0.00 0.00 0.00 0.00 0.00 0.00 0.00 0.00 0.00 0.00 0.00 0.00 0.00 0.00 0.00 0.00 0.00 0.00 0.00 0.00 0.00 0.00 0.00 0.00 0.00 0.00 0.00 0.04
0.00 0.00 0.00 0.00 0.00 0.00 0.00 0.00 0.00 0.00 0.00 0.00 0.01 0.01 0.02 0.01 0.01 0.00 0.00 0.00 0.00 0.00 0.00 0.00 0.00 0.00 0.00 0.00 0.00 0.00 0.00 0.00 0.00 0.00 0.00 0.00 0.00 0.00 0.00 0.00 0.00 0.00 0.00 0.00 0.00 0.00 0.00 0.00 0.00
0.00 0.00 0.00 0.00 0.00 0.00 0.00 0.00 0.00 0.00 0.00 0.00 0.00 0.00 0.00 0.00 0.01 0.00 0.00 0.00 0.00 0.00 0.00 0.00 0.00 0.00 0.00 0.00 0.00 0.00 0.00 0.00 0.00 0.00 0.00 0.00 0.00 0.00 0.00 0.00 0.00 0.00 0.00 0.00 0.00 0.00 0.00 0.00 0.00
MSLP
1012.72 1012.46 1012.56 1012.95 1013.94 1013.98 1013.12 1011.54 1010.05 1009.11 1008.73 1007.86 1008.07 1008.38 1008.52 1008.78 1009.79 1011.33 1011.15 1011.66 1012.13 1012.85 1013.37 1013.51 1013.64 1013.91 1014.32 1014.45 1014.68 1015.12 1015.40 1015.64 1015.79 1015.92 1016.08 1016.31 1016.54 1016.73 1016.89 1016.98 1017.02 1017.20 1017.27 1017.31 1017.40 1017.45 1017.50 1017.61 1017.81
1012.58 1012.27 1012.70 1013.23 1013.94 1013.94 1012.78 1009.99 1008.17 1008.06 1008.02 1007.36 1007.51 1007.78 1008.23 1009.06 1009.72 1010.88 1011.61 1012.22 1012.13 1012.56 1013.33 1013.65 1013.79 1013.90 1014.37 1014.70 1014.83 1015.20 1015.50 1015.82 1016.11 1016.23 1016.24 1016.49 1016.71 1016.92 1017.06 1017.11 1017.22 1017.29 1017.50 1017.51 1017.54 1017.60 1017.60 1017.71 1017.88
1012.53 1012.40 1013.47 1013.71 1013.97 1013.11 1011.16 1009.37 1008.36 1007.84 1007.24 1007.15 1007.46 1007.72 1008.38 1009.25 1009.92 1010.62 1011.08 1012.13 1012.37 1012.91 1013.43 1013.63 1013.95 1014.08 1014.22 1014.78 1015.12 1015.35 1015.55 1015.75 1016.23 1016.49 1016.55 1016.71 1016.83 1016.89 1017.13 1017.26 1017.33 1017.45 1017.63 1017.67 1017.62 1017.69 1017.77 1017.91 1018.07
1012.59 1013.06 1013.79 1013.73 1013.22 1011.98 1010.46 1009.07 1007.83 1007.31 1007.12 1006.97 1007.46 1008.55 1008.72 1008.97 1009.61 1010.19 1011.15 1012.12 1012.55 1013.02 1013.34 1013.66 1013.92 1014.14 1014.44 1014.76 1015.33 1015.68 1015.90 1015.98 1016.39 1016.69 1016.76 1016.87 1017.07 1017.07 1017.18 1017.33 1017.42 1017.63 1017.72 1017.81 1017.82 1017.76 1017.81 1017.93 1018.08
1013.07 1013.97 1014.26 1014.15 1013.18 1011.24 1009.42 1007.64 1007.49 1007.25 1007.10 1007.33 1007.34 1009.19 1009.37 1009.59 1009.63 1010.59 1011.24 1011.92 1012.42 1013.38 1013.59 1013.82 1014.02 1014.16 1014.44 1014.73 1015.17 1015.69 1015.94 1016.12 1016.40 1016.71 1016.87 1017.04 1017.18 1017.26 1017.23 1017.39 1017.50 1017.76 1017.90 1017.93 1017.88 1017.93 1017.77 1017.84 1017.97
1013.91 1014.45 1014.79 1014.24 1012.87 1010.70 1009.29 1007.42 1007.04 1006.64 1007.90 1007.87 1008.45 1008.64 1009.62 1009.63 1010.02 1011.29 1011.67 1012.17 1012.50 1013.00 1013.62 1014.08 1014.08 1014.20 1014.49 1014.78 1015.12 1015.50 1015.81 1016.06 1016.27 1016.54 1016.80 1017.07 1017.23 1017.34 1017.35 1017.31 1017.29 1017.55 1017.85 1017.93 1017.90 1017.96 1017.86 1017.79 1017.85
1013.92 1014.92 1014.91 1013.62 1012.60 1011.13 1009.18 1007.28 1006.92 1007.06 1007.38 1007.63 1007.54 1008.92 1009.62 1009.82 1009.77 1011.02 1011.56 1012.20 1012.77 1013.03 1013.77 1014.19 1014.43 1014.54 1014.69 1014.97 1015.17 1015.49 1015.77 1015.94 1016.12 1016.39 1016.59 1016.87 1017.23 1017.36 1017.49 1017.47 1017.44 1017.54 1017.68 1017.78 1017.85 1017.95 1017.98 1017.95 1017.94
1013.42 1014.46 1014.52 1013.23 1012.59 1011.10 1009.45 1008.25 1007.04 1006.71 1007.29 1007.46 1007.45 1008.54 1009.28 1009.32 1009.14 1010.56 1011.95 1012.72 1013.51 1013.72 1013.91 1014.45 1014.73 1014.95 1015.08 1015.18 1015.32 1015.61 1015.89 1016.06 1016.22 1016.42 1016.57 1016.69 1017.08 1017.31 1017.39 1017.67 1017.62 1017.62 1017.70 1017.70 1017.70 1017.77 1017.95 1017.96 1017.90
1013.02 1014.06 1014.19 1013.32 1012.34 1011.07 1009.36 1008.83 1006.98 1007.02 1007.50 1007.78 1008.19 1008.16 1008.14 1009.03 1009.94 1011.42 1012.70 1013.34 1013.69 1014.23 1014.15 1014.14 1014.53 1015.04 1015.35 1015.43 1015.42 1015.46 1015.71 1016.02 1016.29 1016.51 1016.83 1016.94 1017.00 1017.23 1017.31 1017.36 1017.58 1017.57 1017.64 1017.60 1017.67 1017.70 1017.67 1017.71 1017.78
1013.02 1013.91 1013.02 1012.25 1011.44 1010.63 1009.50 1008.98 1008.05 1007.35 1008.24 1008.84 1008.90 1008.46 1008.09 1008.59 1009.96 1011.54 1013.08 1013.39 1013.91 1014.07 1014.42 1014.25 1014.14 1014.62 1015.13 1015.45 1015.79 1015.70 1015.71 1015.94 1016.22 1016.38 1016.73 1017.00 1017.11 1017.09 1017.17 1017.16 1017.26 1017.49 1017.51 1017.57 1017.65 1017.65 1017.61 1017.77 1017.94
1012.60 1012.81 1011.85 1010.76 1010.39 1009.89 1009.49 1008.74 1007.65 1007.90 1008.14 1008.54 1009.08 1009.14 1008.85 1008.94 1010.40 1012.40 1013.27 1013.98 1014.25 1014.40 1014.39 1014.56 1014.74 1015.00 1015.36 1015.14 1015.68 1015.96 1016.02 1016.18 1016.28 1016.33 1016.28 1016.60 1016.92 1017.12 1017.23 1017.31 1017.24 1017.40 1017.43 1017.53 1017.54 1017.64 1017.54 1017.55 1017.85
1012.40 1011.43 1011.12 1010.06 1009.29 1009.24 1008.99 1008.39 1008.09 1008.06 1008.57 1008.47 1008.66 1008.52 1008.86 1009.11 1010.12 1011.37 1013.70 1015.62 1016.05 1016.08 1014.90 1014.47 1014.52 1014.61 1014.89 1015.26 1015.47 1015.80 1015.99 1016.02 1016.09 1016.16 1016.34 1016.58 1016.81 1017.01 1017.07 1017.18 1017.10 1017.26 1017.24 1017.44 1017.55 1017.65 1017.49 1017.43 1017.54
1011.84 1010.88 1010.19 1009.43 1008.98 1008.90 1008.31 1008.25 1008.37 1008.46 1008.91 1008.97 1008.82 1008.90 1008.62 1008.94 1010.02 1011.59 1011.97 1013.31 1014.47 1015.55 1015.17 1014.67 1013.94 1013.87 1014.23 1014.71 1015.15 1015.25 1015.51 1015.43 1015.44 1015.69 1015.75 1016.09 1016.35 1016.49 1016.61 1016.68 1016.90 1016.95 1017.10 1017.16 1017.41 1017.59 1017.55 1017.42 1017.34
1010.99 1010.69 1009.94 1009.01 1008.52 1008.19 1007.96 1007.98 1008.29 1008.35 1008.81 1009.34 1009.12 1008.84 1008.31 1008.36 1010.33 1011.30 1011.44 1012.06 1012.29 1012.87 1013.06 1012.89 1013.03 1013.65 1013.75 1014.14 1014.43 1014.70 1014.86 1014.91 1015.05 1015.17 1015.18 1015.41 1015.58 1015.74 1016.03 1016.22 1016.48 1016.57 1016.65 1016.68 1016.93 1017.10 1017.25 1017.34 1017.36
1010.75 1010.58 1009.73 1008.98 1008.48 1008.06 1007.70 1008.18 1008.12 1007.66 1008.80 1008.99 1009.19 1008.79 1008.37 1008.21 1010.22 1010.60 1011.18 1011.49 1011.85 1011.83 1012.08 1012.18 1011.71 1012.60 1013.34 1013.55 1013.86 1014.12 1014.17 1014.40 1014.69 1014.56 1014.57 1014.76 1014.97 1015.11 1015.28 1015.61 1015.93 1015.97 1016.09 1016.29 1016.64 1016.88 1017.04 1017.33 1017.11
1011.30 1011.13 1010.75 1009.05 1008.72 1007.77 1008.28 1008.15 1007.47 1007.17 1007.69 1008.77 1008.87 1008.62 1008.29 1008.30 1010.02 1010.71 1011.10 1010.99 1011.61 1011.88 1012.01 1012.08 1011.91 1012.40 1013.05 1013.10 1013.38 1013.31 1013.74 1013.89 1013.88 1013.94 1013.99 1014.20 1014.40 1014.55 1014.86 1015.18 1015.36 1015.44 1015.77 1015.99 1016.42 1016.65 1016.87 1017.00 1017.00
1012.55 1012.13 1011.43 1009.85 1008.80 1008.51 1008.34 1008.05 1007.17 1006.41 1007.06 1007.48 1008.10 1008.33 1008.35 1008.78 1009.48 1009.94 1010.44 1010.67 1011.39 1011.41 1010.97 1010.97 1010.81 1012.00 1012.76 1012.87 1012.75 1012.77 1012.97 1013.28 1013.37 1013.38 1013.41 1013.52 1013.70 1013.93 1014.36 1014.63 1014.75 1015.00 1015.49 1015.91 1016.23 1016.29 1016.63 1016.68 1016.82
1013.16 1012.63 1011.72 1010.89 1008.98 1008.67 1008.44 1007.98 1007.51 1006.80 1007.07 1006.85 1007.11 1007.70 1008.64 1008.81 1008.71 1008.72 1009.69 1009.77 1010.92 1010.73 1010.23 1009.92 1010.73 1011.15 1012.25 1012.32 1012.41 1012.62 1012.67 1012.83 1012.90 1012.88 1013.03 1013.20 1013.22 1013.51 1013.93 1014.17 1014.40 1014.63 1015.03 1015.30 1015.73 1016.03 1016.19 1016.22 1016.24
1012.83 1012.45 1011.77 1010.43 1009.23 1009.01 1008.52 1008.13 1007.75 1007.26 1007.15 1007.30 1007.87 1007.97 1008.45 1009.24 1008.80 1009.27 1009.58 1010.00 1010.91 1010.49 1010.43 1010.69 1010.75 1011.23 1011.72 1012.16 1012.48 1012.52 1012.24 1012.26 1012.49 1012.69 1012.74 1012.90 1012.92 1013.22 1013.57 1013.77 1014.21 1014.26 1014.62 1014.93 1015.27 1015.53 1015.76 1016.14 1016.37
1012.22 1011.97 1011.19 1010.01 1008.90 1008.74 1008.62 1008.25 1008.02 1007.90 1007.79 1007.68 1007.86 1009.00 1009.32 1009.54 1009.31 1009.58 1010.28 1010.99 1010.85 1011.06 1011.21 1011.00 1010.79 1010.97 1011.15 1011.36 1011.46 1011.64 1011.86 1012.01 1012.11 1012.12 1012.23 1012.46 1012.63 1012.89 1013.10 1013.49 1013.91 1014.20 1014.62 1014.94 1015.05 1015.39 1015.88 1016.11 1016.26
1011.27 1011.15 1010.44 1009.84 1008.94 1008.97 1009.17 1008.97 1009.08 1008.54 1009.16 1009.09 1008.16 1008.28 1008.94 1009.06 1009.49 1009.83 1010.74 1011.15 1011.18 1011.30 1011.39 1011.36 1011.68 1011.77 1011.66 1011.67 1011.61 1011.92 1012.16 1012.06 1012.24 1012.22 1012.32 1012.41 1012.42 1012.45 1012.51 1012.55 1013.36 1013.82 1014.81 1015.27 1015.17 1015.69 1016.00 1016.47 1016.65
1010.80 1010.00 1009.81 1009.64 1009.65 1010.29 1010.28 1010.38 1010.61 1010.93 1011.54 1012.07 1011.89 1011.18 1009.13 1009.60 1010.24 1010.28 1010.40 1010.76 1010.81 1011.32 1011.11 1011.17 1012.01 1012.17 1012.37 1012.22 1012.25 1012.59 1012.70 1012.49 1012.62 1012.85 1013.12 1013.38 1012.91 1012.83 1012.86 1012.93 1013.32 1015.29 1016.06 1017.27 1017.63 1016.72 1016.36 1016.63 1016.90
1009.72 1009.35 1009.74 1010.06 1010.50 1011.44 1011.51 1012.02 1012.38 1012.63 1013.95 1014.67 1013.95 1012.59 1013.23 1012.05 1011.45 1011.19 1011.57 1011.61 1011.53 1011.48 1011.65 1011.48 1011.86 1012.44 1013.03 1013.24 1013.36 1013.39 1013.54 1013.63 1013.74 1013.78 1013.69 1013.57 1013.99 1013.48 1013.42 1012.78 1014.23 1014.67 1016.44 1016.48 1017.42 1016.85 1016.35 1016.09 1016.15
1009.24 1009.68 1010.42 1011.07 1011.82 1013.12 1014.09 1013.94 1015.58 1015.94 1016.80 1016.20 1015.45 1015.00 1015.65 1015.42 1014.61 1013.72 1012.47 1012.28 1012.56 1012.52 1012.41 1012.07 1012.44 1013.20 1013.41 1013.78 1013.90 1014.01 1014.21 1014.69 1014.68 1014.73 1014.46 1014.40 1014.19 1014.00 1014.12 1013.93 1014.40 1014.61 1014.59 1015.05 1016.35 1015.00 1014.44 1014.70 1014.97
1009.95 1011.18 1012.31 1013.32 1013.85 1014.95 1014.99 1015.32 1016.76 1017.38 1017.79 1017.29 1017.53 1017.58 1018.03 1018.16 1017.18 1016.12 1017.06 1015.70 1014.18 1013.92 1013.40 1013.10 1013.35 1013.94 1014.13 1014.52 1014.77 1014.86 1014.93 1015.17 1015.41 1015.50 1015.24 1014.85 1014.54 1014.30 1014.27 1014.26 1014.47 1014.68 1014.32 1013.94 1012.84 1013.21 1013.20 1013.49 1014.28
1010.86 1012.17 1013.74 1014.93 1016.03 1016.21 1015.79 1016.21 1016.81 1017.82 1018.45 1018.05 1017.29 1017.77 1019.47 1019.13 1018.97 1017.99 1017.38 1018.25 1015.33 1014.95 1014.61 1014.57 1014.54 1014.62 1014.75 1014.77 1015.14 1015.41 1015.72 1015.87 1015.94 1015.83 1015.64 1015.43 1015.10 1014.86 1014.52 1014.17 1014.17 1013.93 1013.90 1013.71 1013.23 1013.05 1013.00 1013.65 1014.20
1011.39 1012.69 1014.05 1015.99 1017.41 1017.49 1017.36 1016.94 1017.50 1017.95 1018.21 1018.13 1018.06 1017.37 1017.99 1020.05 1020.13 1019.26 1016.82 1019.85 1014.44 1015.57 1016.11 1016.09 1016.16 1015.41 1015.55 1015.55 1015.45 1015.84 1016.16 1016.30 1016.32 1016.15 1015.87 1015.77 1015.50 1015.21 1014.82 1014.41 1014.00 1013.62 1013.75 1013.47 1013.46 1013.46 1013.97 1014.12 1013.81
1011.64 1013.60 1015.32 1017.33 1018.74 1019.16 1018.50 1018.14 1017.78 1018.01 1018.51 1018.87 1018.54 1018.40 1018.56 1018.83 1020.12 1019.70 1018.80 1018.05 1016.37 1017.07 1017.61 1017.05 1016.78 1016.40 1015.78 1016.02 1016.12 1016.42 1016.46 1016.66 1016.74 1016.61 1016.39 1016.20 1015.94 1015.44 1015.00 1014.50 1014.04 1013.60 1013.04 1013.14 1013.27 1013.39 1013.56 1013.52 1013.57
1013.01 1014.57 1016.76 1018.26 1019.31 1019.84 1019.55 1018.77 1017.92 1018.49 1018.62 1018.80 1018.77 1018.99 1019.07 1018.56 1019.30 1018.40 1019.09 1018.78 1018.45 1017.68 1018.42 1017.69 1017.19 1016.99 1016.27 1016.43 1016.69 1016.76 1016.83 1016.88 1016.81 1016.84 1016.80 1016.19 1016.02 1015.82 1015.30 1014.86 1014.37 1013.90 1013.55 1013.01 1012.91 1013.03 1013.31 1013.46 1013.34
1012.76 1014.75 1016.66 1018.60 1020.05 1020.29 1020.16 1018.57 1017.89 1018.33 1018.51 1018.61 1018.85 1018.96 1018.90 1018.95 1019.32 1018.66 1018.48 1018.61 1018.62 1017.21 1017.39 1017.79 1017.78 1016.99 1016.64 1016.20 1017.11 1017.02 1016.88 1016.79 1017.05 1016.67 1016.68 1016.48 1015.81 1015.77 1015.36 1014.97 1014.57 1014.06 1013.67 1013.43 1013.09 1012.82 1012.67 1012.72 1012.93
Thickness
5814 5819 5821 5812 5777 5764 5760 5779 5804 5804 5811 5834 5834 5823 5823 5831 5817 5790 5833 5832 5828 5822 5817 5817 5816 5814 5812 5812 5810 5808 5807 5806 5805 5804 5801 5798 5796 5793 5790 5787 5785 5782 5779 5777 5775 5773 5771 5769 5767
5814 5819 5814 5796 5760 5742 5757 5803 5815 5817 5829 5846 5846 5841 5831 5819 5836 5825 5825 5828 5828 5823 5816 5815 5814 5814 5811 5810 5810 5807 5807 5805 5803 5802 5801 5797 5794 5791 5788 5786 5783 5781 5777 5775 5773 5772 5770 5768 5765
5814 5817 5792 5775 5753 5753 5769 5810 5819 5828 5840 5841 5835 5847 5836 5824 5831 5832 5836 5828 5824 5820 5814 5813 5811 5811 5811 5808 5807 5806 5806 5806 5802 5799 5797 5795 5792 5791 5787 5784 5781 5778 5775 5773 5772 5770 5768 5766 5762
5806 5800 5790 5770 5770 5784 5797 5811 5824 5832 5841 5846 5841 5820 5840 5848 5837 5839 5837 5827 5822 5818 5814 5811 5810 5810 5808 5807 5803 5802 5802 5803 5799 5796 5794 5792 5790 5789 5787 5783 5780 5776 5773 5770 5769 5768 5767 5764 5761
5799 5781 5761 5758 5768 5794 5816 5833 5831 5827 5831 5834 5840 5811 5821 5840 5845 5838 5833 5830 5821 5812 5810 5810 5809 5808 5807 5806 5804 5801 5800 5799 5798 5794 5792 5790 5788 5786 5785 5781 5778 5773 5770 5767 5767 5765 5765 5763 5760
5774 5772 5749 5747 5772 5799 5810 5833 5836 5837 5822 5829 5823 5821 5822 5842 5839 5830 5829 5826 5821 5817 5810 5806 5808 5808 5805 5805 5803 5801 5799 5798 5796 5793 5791 5788 5786 5784 5782 5780 5778 5774 5769 5767 5765 5763 5762 5761 5760
5770 5753 5749 5766 5771 5781 5803 5834 5834 5828 5824 5825 5838 5809 5820 5836 5844 5834 5828 5826 5820 5816 5808 5805 5803 5803 5802 5801 5801 5799 5797 5796 5795 5792 5790 5787 5784 5781 5779 5777 5775 5773 5769 5767 5764 5761 5759 5757 5756
5777 5762 5761 5768 5764 5771 5806 5818 5833 5833 5825 5844 5840 5802 5801 5832 5846 5837 5820 5816 5810 5809 5807 5802 5800 5799 5798 5798 5797 5796 5793 5793 5792 5790 5788 5786 5783 5780 5777 5773 5771 5769 5767 5765 5764 5761 5757 5755 5754
5791 5752 5740 5758 5772 5779 5806 5799 5832 5839 5826 5828 5825 5823 5830 5837 5836 5821 5809 5804 5803 5802 5805 5805 5801 5796 5794 5795 5795 5796 5793 5791 5789 5786 5783 5782 5782 5778 5776 5773 5769 5768 5765 5764 5762 5760 5758 5756 5753
5770 5741 5761 5780 5790 5788 5797 5801 5812 5821 5810 5804 5811 5827 5836 5834 5826 5814 5804 5802 5798 5797 5799 5802 5803 5799 5795 5790 5789 5791 5792 5790 5789 5786 5781 5780 5777 5776 5774 5773 5770 5766 5765 5762 5760 5758 5757 5753 5751
5776 5757 5780 5795 5796 5800 5798 5804 5819 5811 5800 5808 5802 5811 5821 5824 5810 5796 5799 5794 5789 5793 5796 5795 5794 5791 5789 5790 5786 5784 5785 5784 5784 5783 5784 5781 5776 5773 5771 5769 5768 5765 5763 5761 5759 5756 5756 5755 5750
5769 5783 5787 5799 5808 5803 5800 5815 5810 5809 5807 5817 5817 5821 5820 5821 5809 5792 5781 5765 5769 5767 5782 5789 5791 5791 5789 5785 5784 5782 5780 5780 5780 5780 5778 5777 5775 5772 5770 5767 5766 5764 5762 5759 5757 5755 5755 5755 5750
5773 5785 5795 5803 5803 5802 5810 5806 5805 5809 5807 5812 5816 5816 5816 5820 5806 5793 5796 5789 5779 5766 5773 5782 5795 5796 5791 5787 5783 5782 5779 5780 5781 5780 5780 5777 5774 5772 5769 5766 5764 5763 5760 5758 5754 5751 5751 5752 5750
5786 5788 5793 5802 5805 5807 5804 5804 5806 5811 5807 5804 5808 5811 5818 5822 5800 5797 5799 5796 5794 5792 5792 5792 5796 5794 5788 5788 5785 5782 5781 5779 5780 5779 5780 5779 5778 5775 5771 5767 5763 5762 5760 5758 5755 5751 5749 5748 5747
5788 5779 5788 5798 5805 5802 5807 5789 5794 5815 5799 5798 5801 5807 5813 5818 5798 5798 5797 5793 5793 5797 5797 5792 5808 5801 5791 5787 5784 5781 5781 5780 5779 5780 5780 5780 5778 5776 5773 5768 5764 5762 5760 5757 5753 5750 5748 5745 5745
5770 5768 5751 5784 5792 5801 5793 5765 5800 5814 5807 5791 5793 5801 5808 5810 5796 5794 5792 5793 5793 5792 5789 5794 5805 5800 5790 5788 5785 5786 5781 5780 5781 5781 5780 5779 5776 5775 5772 5769 5766 5762 5758 5755 5751 5749 5745 5743 5741
5739 5731 5743 5759 5788 5783 5782 5771 5800 5814 5805 5802 5794 5795 5798 5797 5795 5795 5790 5790 5786 5788 5800 5804 5807 5796 5787 5783 5783 5784 5783 5780 5779 5780 5781 5779 5777 5775 5771 5767 5765 5760 5755 5752 5747 5745 5741 5738 5736
5720 5727 5734 5737 5770 5773 5767 5768 5785 5800 5799 5801 5799 5795 5790 5790 5794 5799 5790 5794 5785 5789 5800 5806 5801 5795 5786 5784 5781 5780 5780 5780 5779 5780 5779 5777 5776 5773 5768 5765 5762 5758 5754 5750 5745 5739 5738 5738 5738
5733 5729 5727 5749 5767 5762 5758 5762 5774 5786 5788 5787 5784 5785 5783 5780 5789 5789 5789 5787 5779 5784 5789 5791 5790 5784 5779 5773 5770 5772 5774 5777 5776 5774 5773 5772 5770 5766 5763 5761 5758 5754 5750 5745 5741 5738 5736 5731 5731
5729 5720 5724 5745 5763 5760 5752 5756 5772 5776 5777 5783 5783 5771 5770 5772 5773 5775 5774 5769 5770 5770 5770 5773 5778 5777 5777 5777 5775 5774 5772 5771 5770 5770 5768 5766 5763 5761 5759 5756 5750 5747 5740 5734 5733 5730 5725 5723 5723
5729 5720 5727 5731 5752 5753 5743 5743 5747 5768 5765 5763 5774 5778 5775 5775 5773 5769 5757 5757 5760 5760 5757 5760 5762 5764 5768 5767 5767 5766 5762 5763 5761 5762 5760 5758 5757 5756 5755 5754 5745 5738 5726 5722 5724 5721 5719 5713 5712
5706 5740 5737 5738 5730 5698 5736 5698 5731 5732 5728 5725 5729 5745 5766 5766 5763 5765 5764 5761 5764 5760 5764 5763 5756 5755 5754 5755 5755 5750 5747 5750 5751 5745 5743 5742 5744 5746 5743 5743 5735 5714 5707 5698 5698 5706 5708 5703 5699
5721 5743 5732 5730 5717 5702 5709 5692 5711 5706 5698 5696 5705 5728 5727 5738 5746 5749 5747 5748 5752 5755 5750 5750 5747 5744 5740 5737 5737 5735 5734 5735 5735 5732 5732 5728 5727 5731 5730 5736 5720 5712 5692 5679 5688 5693 5700 5705 5703
5741 5732 5714 5706 5694 5667 5667 5684 5661 5666 5669 5682 5692 5699 5693 5690 5701 5714 5731 5733 5730 5735 5736 5738 5735 5728 5727 5724 5722 5722 5722 5716 5715 5715 5717 5719 5719 5720 5718 5718 5710 5703 5701 5699 5685 5706 5711 5711 5709
5714 5690 5656 5658 5655 5651 5673 5669 5654 5659 5659 5665 5666 5667 5661 5660 5665 5675 5668 5683 5699 5706 5714 5718 5715 5710 5711 5708 5706 5706 5704 5703 5701 5700 5702 5704 5706 5708 5707 5705 5701 5695 5698 5705 5719 5718 5718 5713 5702
5703 5684 5649 5637 5631 5643 5668 5650 5657 5652 5653 5656 5665 5660 5644 5642 5644 5653 5659 5648 5671 5678 5687 5692 5693 5695 5696 5697 5694 5692 5688 5686 5684 5685 5687 5688 5691 5693 5696 5697 5693 5693 5696 5700 5709 5712 5715 5706 5700
5690 5671 5673 5639 5634 5624 5631 5653 5648 5650 5646 5649 5649 5652 5647 5627 5625 5632 5656 5602 5659 5660 5660 5664 5666 5676 5678 5680 5682 5679 5675 5672 5671 5671 5674 5674 5676 5680 5684 5686 5689 5690 5688 5695 5697 5700 5696 5694 5694
5688 5674 5643 5623 5609 5601 5614 5625 5630 5633 5632 5631 5632 5629 5629 5626 5612 5616 5624 5610 5636 5634 5635 5640 5646 5651 5662 5663 5664 5662 5663 5659 5657 5657 5659 5661 5662 5666 5669 5675 5679 5682 5687 5687 5687 5687 5688 5688 5687
5656 5639 5618 5613 5605 5595 5595 5606 5625 5619 5619 5617 5617 5616 5614 5617 5606 5609 5599 5608 5611 5617 5611 5616 5625 5633 5644 5645 5645 5646 5645 5644 5645 5644 5644 5650 5652 5652 5655 5657 5661 5667 5669 5676 5678 5677 5676 5677 5679
5664 5638 5617 5591 5592 5586 5581 5593 5624 5612 5608 5606 5603 5600 5602 5601 5596 5601 5603 5602 5600 5610 5616 5603 5606 5617 5624 5631 5627 5629 5631 5633 5628 5634 5632 5635 5642 5642 5644 5646 5648 5650 5654 5657 5661 5667 5671 5673 5672